Location: St. Louis
(38.6270°N, 90.1994°W)
Time: 06:10:39
(UTC-06:00)

A-11 Canister half - Pass Details

Date: 05 December 2021
Orbit: 1524 x 1684 km, 47.3° (Epoch: 22 January)

Event Time Altitude Azimuth Distance (km) Brightness Sun altitude
Exits shadow 02:56:19 41° 42° (NE) 2,279 9.9 -47.5°
Drops below altitude 10° 03:02:30 10° 64° (ENE) 3,888 11.6 -46.3°
Sets 03:05:42 0° 68° (ENE) 4,855 12.3 -45.7°
